FW9580 Weather Reports


time (UTC)temp
C
wind
direction
speed
KPH
gust
KPH
rain 1hr
cm
rain 24hr
cm
rain mn
cm
humidity
%
barometer
mb
20260508100009 5 279 4.8 9.7 0.00 0.00 0.00 72 1005.5
20260508094519 4 278 6.4 11.3 0.00 0.00 0.00 72 1005.4
20260508093005 4 298 8.0 11.3 0.00 0.00 0.00 72 1005.2
20260508091501 5 288 6.4 14.5 0.00 0.00 0.00 71 1005.1
20260508090001 5 269 4.8 14.5 0.00 0.00 0.00 70 1005.0
20260508084559 5 265 9.7 17.7 0.00 0.00 0.00 71 1004.9
20260508083058 5 257 8.0 17.7 0.00 0.00 0.00 70 1004.8
20260508081608 5 257 8.0 17.7 0.00 0.00 0.00 70 1004.9
20260508080055 5 257 8.0 16.1 0.00 0.00 0.00 70 1004.8
20260508074553 5 255 8.0 16.1 0.00 0.00 0.00 67 1004.7
20260508073103 5 240 9.7 24.1 0.00 0.00 0.00 67 1004.6
20260508071608 5 261 8.0 16.1 0.00 0.00 0.00 67 1004.5
20260508070058 5 274 9.7 19.3 0.00 0.03 0.00 66 1004.6
20260508064546 5 257 8.0 24.1 0.00 0.03 0.00 67 1004.7
20260508063044 5 294 9.7 17.7 0.00 0.03 0.00 66 1004.7
20260508061545 5 223 8.0 16.1 0.00 0.03 0.00 66 1004.9
20260508060043 6 266 9.7 27.4 0.00 0.48 0.00 63 1004.9
20260508054543 6 252 9.7 19.3 0.00 0.48 0.00 63 1005.0
20260508053035 6 248 11.3 22.5 0.00 0.48 0.00 62 1005.0
20260508051539 6 267 9.7 19.3 0.00 0.48 0.00 61 1005.0
20260508050033 6 278 8.0 24.1 0.00 0.48 0.48 60 1005.2
20260508044528 6 248 9.7 20.9 0.00 0.48 0.48 61 1005.3
20260508043027 6 275 11.3 19.3 0.00 0.48 0.48 62 1005.2
20260508041524 6 283 9.7 16.1 0.00 0.48 0.48 61 1005.3
20260508040029 6 291 11.3 19.3 0.00 0.48 0.48 60 1005.4
20260508034521 6 302 9.7 17.7 0.00 0.48 0.48 61 1005.6
20260508033020 6 282 8.0 17.7 0.00 0.48 0.48 60 1005.7
20260508031517 6 262 9.7 16.1 0.00 0.48 0.48 60 1005.7
20260508030023 7 279 8.0 14.5 0.00 0.58 0.48 58 1005.6
20260508024519 7 281 6.4 16.1 0.00 0.58 0.48 57 1005.5
20260508023019 7 292 9.7 16.1 0.00 0.58 0.48 56 1005.5
20260508021519 7 280 8.0 16.1 0.00 0.58 0.48 55 1005.4
20260508020013 7 277 9.7 16.1 0.00 0.86 0.48 55 1005.5
20260508014520 8 295 8.0 16.1 0.00 0.86 0.48 57 1005.5
20260508013012 8 284 6.4 12.9 0.00 0.86 0.48 55 1005.5
20260508011514 9 304 12.9 25.7 0.00 0.86 0.48 51 1005.6
20260508010010 9 276 12.9 27.4 0.00 1.50 0.48 51 1005.3
20260508004509 10 319 14.5 25.7 0.00 1.50 0.48 53 1005.1
20260508003008 10 294 9.7 16.1 0.00 1.50 0.48 54 1004.8
20260508001520 10 281 14.5 25.7 0.00 1.50 0.48 54 1004.5
20260508000007 10 279 6.4 24.1 0.00 1.91 0.48 59 1004.1
20260507234505 10 283 9.7 16.1 0.00 1.91 0.48 68 1004.0
20260507233014 9 150 0.0 8.0 0.00 1.91 0.48 81 1003.7
20260507231510 10 152 1.6 11.3 0.00 1.91 0.48 79 1003.4
20260507230013 10 134 4.8 11.3 0.00 2.03 0.48 78 1003.1
20260507224503 10 138 8.0 16.1 0.00 2.03 0.48 78 1002.8
20260507223002 9 130 6.4 9.7 0.00 2.03 0.48 79 1002.6
20260507221501 10 134 3.2 8.0 0.00 2.03 0.48 78 1002.6
20260507220003 9 143 6.4 12.9 0.00 2.24 0.48 78 1002.7
20260507214501 10 125 6.4 16.1 0.00 2.24 0.48 78 1002.7
20260507213102 10 123 9.7 22.5 0.00 2.24 0.48 76 1002.7
20260507211605 10 130 14.5 22.5 0.00 2.24 0.48 73 1002.7
20260507210059 10 145 17.7 33.8 0.00 2.29 0.48 71 1002.7
20260507204602 10 138 16.1 27.4 0.00 2.29 0.48 73 1002.6
20260507203101 11 162 17.7 29.0 0.00 2.29 0.48 71 1002.4
20260507201558 12 127 16.1 22.5 0.00 2.29 0.48 70 1002.5
20260507200056 12 162 16.1 29.0 0.00 2.29 0.48 69 1002.5
20260507194558 11 126 14.5 27.4 0.00 2.29 0.48 72 1002.7
20260507193055 13 137 20.9 32.2 0.00 2.29 0.48 66 1002.8
20260507191601 13 158 16.1 25.7 0.00 2.29 0.48 63 1002.9
20260507190054 13 134 12.9 22.5 0.00 2.29 0.48 69 1002.8
20260507184554 14 170 12.9 24.1 0.00 2.29 0.48 65 1003.0
20260507183103 15 137 12.9 22.5 0.00 2.29 0.48 66 1003.2
20260507181554 13 147 11.3 20.9 0.00 2.29 0.48 67 1003.2
20260507180056 15 152 9.7 22.5 0.00 2.29 0.48 63 1003.4
20260507174552 13 174 12.9 22.5 0.00 2.29 0.48 68 1003.5
20260507173059 15 151 14.5 24.1 0.00 2.29 0.48 62 1003.4
20260507171554 14 139 11.3 19.3 0.00 2.29 0.48 63 1003.4
20260507170054 13 161 12.9 17.7 0.00 2.29 0.48 65 1003.5
20260507164550 13 156 14.5 22.5 0.00 2.29 0.48 62 1003.6
20260507163049 15 139 11.3 16.1 0.00 2.29 0.48 61 1003.7
20260507161553 14 145 14.5 19.3 0.00 2.29 0.48 63 1003.8
20260507160047 14 138 11.3 17.7 0.00 2.29 0.48 65 1003.9
20260507154547 15 185 4.8 11.3 0.00 2.29 0.48 61 1004.1
20260507153051 15 211 4.8 11.3 0.00 2.29 0.48 61 1004.3
20260507151542 14 217 6.4 11.3 0.00 2.29 0.48 63 1004.4
20260507150041 13 232 4.8 12.9 0.00 2.29 0.48 67 1004.4
20260507144543 13 227 3.2 11.3 0.00 2.29 0.48 67 1004.5
20260507143042 13 237 9.7 14.5 0.00 2.29 0.48 68 1004.8
20260507141538 13 225 6.4 14.5 0.00 2.29 0.48 68 1004.9
20260507140037 12 252 6.4 14.5 0.00 2.29 0.48 72 1005.0
20260507134534 12 217 3.2 9.7 0.00 2.29 0.48 74 1004.9
20260507133033 11 230 4.8 11.3 0.00 2.29 0.48 74 1005.4
20260507131538 11 277 3.2 12.9 0.00 2.29 0.48 76 1005.4
20260507130033 11 276 9.7 16.1 0.00 2.29 0.48 79 1005.1
20260507124525 10 255 6.4 14.5 0.00 2.29 0.48 82 1005.3
20260507123024 10 240 4.8 12.9 0.00 2.29 0.48 86 1004.8
20260507121520 8 263 4.8 9.7 0.00 2.29 0.48 90 1005.1
20260507120019 8 263 3.2 11.3 0.00 2.29 0.48 90 1005.2
20260507114517 8 259 3.2 9.7 0.00 2.29 0.48 93 1005.7
20260507113023 8 258 4.8 9.7 0.00 2.29 0.48 94 1005.3
20260507111518 7 252 1.6 8.0 0.00 2.29 0.48 94 1005.6
20260507110015 7 267 1.6 8.0 0.00 2.29 0.48 95 1005.4
20260507104514 7 259 6.4 12.9 0.00 2.29 0.48 95 1005.4
20260507103012 7 267 4.8 9.7 0.00 2.29 0.48 95 1004.5
20260507101512 7 261 4.8 9.7 0.00 2.29 0.48 96 1004.9